Location: A�t Lahcen
(32.8243°N, 5.4246°W)
Time: 01:47:19
(UTC+00:00)

SL-16 R/B - Pass Details

Date: 27 January 2021
Orbit: 839 x 850 km, 71.0° (Epoch: 27 February)

Event Time Altitude Azimuth Distance (km) Brightness Sun altitude
Exits shadow 05:07:29 - 191° (S) 2,645 4.7 -27.8°
Reaches altitude 10° 05:08:01 10° 190° (S) 2,445 4.5 -27.7°
Maximum altitude 05:13:36 70° 108° (ESE) 892 2.4 -26.5°
Drops below altitude 10° 05:19:13 10° 25° (NNE) 2,465 4.8 -25.4°
Sets 05:21:40 0° 24° (NNE) 3,404 5.6 -24.8°
